EST,Max TemperatureF,Mean TemperatureF,Min TemperatureF,Max Dew PointF,MeanDew PointF,Min DewpointF,Max Humidity, Mean Humidity, Min Humidity, Max Sea Level PressureIn, Mean Sea Level PressureIn, Min Sea Level PressureIn, Max VisibilityMiles, Mean VisibilityMiles, Min VisibilityMiles, Max Wind SpeedMPH, Mean Wind SpeedMPH, Max Gust SpeedMPH,PrecipitationIn, CloudCover, Events, WindDirDegrees
2011-12-1,52,40,27,27,24,21,78,55,32,30.35,30.29,30.17,10,10,10,16,3,21,0.00,0,,322
2011-12-2,58,40,22,29,24,20,88,56,23,30.58,30.40,30.31,10,10,8,18,4,23,0.00,0,,346
2011-12-3,48,36,23,30,27,21,88,67,46,30.67,30.60,30.54,10,9,5,10,2,14,0.00,0,,139
2011-12-4,56,42,27,35,30,24,92,68,43,30.53,30.43,30.35,10,9,6,13,3,17,0.00,0,,165
2011-12-5,63,50,36,50,42,33,92,74,55,30.35,30.25,30.12,10,9,5,13,3,20,0.00,4,,170
2011-12-6,60,56,51,57,54,50,100,90,80,30.09,29.97,29.88,10,4,0,9,3,14,0.11,6,Fog-Rain,173
2011-12-7,54,46,37,54,46,30,100,93,85,29.90,29.80,29.64,10,4,0,21,8,31,1.46,7,Fog-Rain,329
2011-12-8,42,35,28,27,23,19,85,65,44,30.34,30.19,29.93,10,10,10,24,7,33,0.00,2,,285
2011-12-9,50,37,23,29,25,20,96,71,45,30.32,30.27,30.21,10,9,6,7,1,8,0.00,0,,316
2011-12-10,44,35,26,28,18,9,69,50,30,30.56,30.39,30.25,10,10,10,18,7,25,0.00,1,,310
2011-12-11,41,30,18,17,14,12,80,55,30,30.68,30.62,30.56,10,10,9,6,1,8,0.00,0,,216
2011-12-12,41,29,17,22,19,14,88,67,45,30.60,30.54,30.47,10,8,5,5,0,7,0.00,0,,350
2011-12-13,51,35,19,27,22,15,88,60,32,30.50,30.45,30.40,10,8,4,9,2,16,0.00,2,,349
2011-12-14,50,42,34,32,29,27,75,59,42,30.43,30.35,30.23,10,10,6,7,1,9,0.00,6,,138
2011-12-15,64,51,37,47,40,31,79,66,52,30.20,29.98,29.84,10,10,10,20,6,31,T,3,,185
2011-12-16,63,51,38,43,26,22,54,46,38,30.26,30.15,29.89,10,10,10,31,10,40,0.00,2,,300
2011-12-17,39,33,26,26,22,19,75,60,44,30.24,30.21,30.17,10,10,7,15,7,21,T,7,Snow,306
2011-12-18,41,33,25,26,23,20,81,66,50,30.33,30.27,30.21,10,10,9,15,4,18,T,6,,266
2011-12-19,54,39,23,32,26,19,81,58,35,30.29,30.14,30.05,10,10,2,15,5,20,0.00,4,,200
2011-12-20,52,47,41,40,38,32,89,69,48,30.17,30.12,30.07,10,10,7,16,5,23,T,6,,304
2011-12-21,59,50,41,54,44,37,93,72,51,30.06,29.86,29.74,10,6,1,21,4,26,0.05,5,Rain,226
2011-12-22,58,49,39,46,43,36,93,75,57,30.14,29.97,29.83,10,7,2,13,2,18,0.70,4,Rain,359
2011-12-23,50,45,40,46,38,31,93,76,58,30.25,30.05,29.79,10,9,2,22,9,28,0.04,6,Rain,322
2011-12-24,44,36,28,35,26,21,85,63,40,30.48,30.38,30.23,10,10,10,17,5,25,T,4,Rain,331
2011-12-25,51,37,22,29,23,19,88,62,36,30.37,30.18,30.01,10,10,6,28,5,36,0.00,0,,222
2011-12-26,48,39,30,26,24,23,78,60,42,30.35,30.25,30.06,10,10,10,29,9,37,0.00,4,,307
2011-12-27,44,38,32,37,34,26,100,80,59,30.16,29.60,29.43,10,4,0,29,4,39,0.41,6,Fog-Rain,155
2011-12-28,43,36,28,30,22,14,65,51,37,30.02,29.82,29.55,10,10,10,29,13,40,0.00,5,,293
2011-12-29,37,30,23,30,24,17,88,73,58,30.06,30.00,29.94,10,10,4,12,1,15,T,5,,172
2011-12-30,53,39,24,35,29,22,92,70,48,30.04,29.94,29.83,10,8,3,9,1,13,0.00,1,,32
2011-12-31,55,45,34,41,36,31,92,74,56,30.12,29.95,29.82,10,10,6,23,6,29,T,6,,268